Regional Weather Roundup
Issued by NWS Pendleton, OR

Home | Current Version | Previous Version | Text Only | Print | Product List | Glossary On
Versions: 1 2 3 4 5 6 7 8 9 10 11 12 13 14 15 16 17 18 19 20 21 22 23 24 25 26 27 28 29 30 31 32 33 34 35 36 37 38 39 40 41 42 43 44 45 46 47 48 49 50
560
ASUS46 KPDT 081225
RWRPDT
PENDLETON REGIONAL WEATHER ROUNDUP
NATIONAL WEATHER SERVICE PENDLETON OREGON
400 AM PST THU DEC 8 2016

NOTE: FAIR INDICATES FEW OR NO CLOUDS BELOW 12,000 FEET WITH NO
SIGNIFICANT WEATHER AND/OR OBSTRUCTIONS TO VISIBILITY.

# INDICATES UNOFFICIAL STATION AND DATA

WAZ520-081310-
EAST SLOPES OF WASHINGTON CASCADES

CITY            SKY/WX      TMP DP  RH  WIND    PRES   REMARKS
#CLE ELUM HS    N/A         14   8  76  CALM    30.24F
#CLE ELUM LAKE  N/A         14  11  88  CALM    30.42F
#GLENWOOD       N/A         22  16  77  N3      30.36F
#MANASTASH CYN  N/A         17   8  67  CALM    30.22F
#NELSON 3SW     N/A         15  12  88  CALM    30.65F
#NILE           N/A         21  12  68  CALM    29.65F
#RONALD 2NW     N/A         19  N/A N/A E2      30.19F
#TEANAWAY 4NE   N/A          9   6  87  CALM    N/A
#TROUT LAKE 1NE N/A         24  15  68  SE6     30.30F
#TROUT LAKE 1E  N/A         25  17  71  CALM    30.16F
$$

WAZ521-081310-
SIMCOE HIGHLANDS

CITY            SKY/WX      TMP DP  RH  WIND    PRES   REMARKS
#CENTERVILLE 1SWN/A         17  14  88  E6      30.33F
#GOLDENDALE 1NE N/A         23   4  43  E10     N/A
#GOLDENDALE 4W  N/A         N/A N/A N/A SW3     30.26F
#GOODNOE HILLS  N/A         18  13  80  E6      30.19F
#LYLE 6NE       N/A         19  16  88  CALM    30.32F
$$

WAZ026-081310-
KITTITAS VALLEY

CITY            SKY/WX      TMP DP  RH  WIND    PRES   REMARKS
ELLENSBURG AP   PTCLDY      17  11  77  N3      30.32F
6HR MIN TEMP:   17; 6HR MAX TEMP:   22;

#ELLENSBURG CWU N/A         22  12  65  SE8     30.39F
#ELLENSBURG 3NE N/A         16  11  80  CALM    28.39F
#KITTITAS 4N    N/A         21  11  65  E7      30.33F
#KITTITAS 3S    N/A         21  12  68  E3      30.44F
#THORP 6N       N/A         16  11  80  E1      30.48F
$$

WAZ027-081310-
YAKIMA VALLEY

CITY            SKY/WX      TMP DP  RH  WIND    PRES   REMARKS
SUNNYSIDE AP    PTCLDY      16  12  84  CALM    30.37F
YAKIMA AIRPORT  PTCLDY      21  12  68  SW6     30.37F
6HR MIN TEMP:   18; 6HR MAX TEMP:   21;

YAKIMA-VAGABOND CLEAR       22  10  59  E16     30.32F WCI  8
6HR MIN TEMP:   17; 6HR MAX TEMP:   22;

#GRANDVIEW      N/A         15   9  77  CALM    30.45F
#MABTON         N/A         19  14  80  W5      30.38F
#NACHES 2SW     N/A         21  13  71  NE6     30.32F
#TERRACE HTS    N/A         22  12  65  CALM    30.39F
#TOPPENISH      N/A         16  11  80  CALM    30.34F
#WEST VALLEY    N/A         22  12  65  N6      30.42F
#WHITE SWAN 5E  N/A         18  14  84  CALM    30.44F
#WILEY CITY 3W  N/A         17  10  73  CALM    30.31F
$$

WAZ028-081310-
LOWER COLUMBIA BASIN...WASHINGTON

CITY            SKY/WX      TMP DP  RH  WIND    PRES   REMARKS
HANFORD         CLOUDY      18  11  74  N8      30.40F
6HR MIN TEMP:   17; 6HR MAX TEMP:   21;

PASCO           PTCLDY      16  12  84  NE5     30.42F
6HR MIN TEMP:   15; 6HR MAX TEMP:   20;

PROSSER AWOS    N/A         16  14  92  CALM    30.41F
RICHLAND AWOS   PTCLDY      18  13  80  N7      30.42F
#BENTON CITY    N/A         23  14  68  NE12    30.34F WCI 11
#CONNELL 5N     N/A         17  12  80  NE9     30.45F
#CONNELL 5NW    N/A         16  11  80  E5      30.40F
#ELTOPIA 6NW    N/A         15  12  88  CALM    29.32F
#KAHLOTUS       N/A         15  11  84  SE5     30.44F
#KENNEWICK 3S   N/A         15  11  84  CALM    30.45F
#PATERSON       N/A         20  15  81  CALM    30.40F
#SAGEMOOR 2W    N/A         15  10  80  N6      30.28F
#TOUCHET 2S     N/A         14  11  88  CALM    30.42F
#WEST PASCO     N/A         18  12  77  CALM    30.44F
$$

WAZ029-081310-
FOOTHILLS OF THE BLUES...WASHINGTON

CITY            SKY/WX      TMP DP  RH  WIND    PRES   REMARKS
WALLA WALLA AP  FRZFOG      18  15  88  CALM    30.33F VSB 1/4
6HR MIN TEMP:   13; 6HR MAX TEMP:   18;

#CLYDE 6NW      N/A         13  10  87  CALM    30.42F
#DAYTON SCHOOL  N/A          9   1  69  CALM    30.30F
#LOWDEN 2SE     N/A         16  14  92  CALM    30.36F
#PLEASANT VIEW 1N/A         12  10  91  CALM    30.47F
#PRESCOTT       N/A         11   9  91  CALM    30.44F
#WHITMAN COLLEGEN/A         17  14  88  S2      30.46F
#WAITSBURG 5S   N/A          8   5  87  CALM    30.53F
#WAITSBURG 8N   N/A          7  N/A N/A E1      30.29F
#WHITMAN MISSIONN/A         15  13  92  CALM    30.45F
$$

WAZ030-081310-
BLUE MOUNTAINS...WASHINGTON

CITY            SKY/WX      TMP DP  RH  WIND    PRES   REMARKS
#DIXIE 5SE      N/A         21  11  65  N3      30.12F
#SKI BLUEWOOD   N/A         12   9  87  SW2     30.11F
$$

ORZ009-041-WAZ024-081310-
COLUMBIA RIVER GORGE

CITY            SKY/WX      TMP DP  RH  WIND    PRES   REMARKS
HOOD RIVER AP   CLOUDY      25  18  74  NE6     30.32F
THE DALLES AP   CLOUDY      25  19  78  E3      30.37F
6HR MIN TEMP:   23; 6HR MAX TEMP:   26;

#ARLINGTON AIRPON/A         18  15  88  E8      30.40F
#ARLINGTON HS   N/A         19  13  77  E5      30.30F
#CELILO DOT     N/A         26  17  68  NE2     N/A
#LYLE           N/A         27  21  78  E8      30.37F
#MOSIER 1S      N/A         21  10  62  CALM    N/A
#MURDOCK        N/A         26  20  78  E2      30.34F
#RUFUS DOT      N/A         24  18  77  SE7     N/A
#SMITHVILLE     N/A         25  20  81  E5      30.32F

$$

ORZ510-081310-
NORTH CENTRAL OREGON

CITY            SKY/WX      TMP DP  RH  WIND    PRES   REMARKS
#ANTELOPE       N/A         18  12  77  NE7     30.21F
#CHENOWITH 1W   N/A         17  16  96  E12     N/A    WCI  4
#COW CYN RST AREN/A         14  N/A N/A N8      N/A
#DUFUR 9E       N/A         18  14  84  E31G41  30.40F WCI -2
#GRASS VALLEY 1SN/A         17  14  88  E9      30.11F
#KENT DOT       N/A         16  11  80  N12     N/A    WCI  3
#MAUPIN SCHOOL  N/A         24  16  71  N5      30.32F
#MORO SCHOOL    N/A         18  16  92  E5      30.22F
#SHANIKO 5WSW   N/A         12   7  80  N16     N/A    WCI -5
#SHANIKO 4NW    N/A         12  10  91  E10     30.07F
#WAPANITIA AIRPON/A         20  16  84  NE6     30.39F
#WASCO DOT      N/A         21  15  77  E13     N/A    WCI  8
#WASCO 5NE      N/A         17  14  88  N3      30.38F
$$

ORZ511-081310-
CENTRAL OREGON

CITY            SKY/WX      TMP DP  RH  WIND    PRES   REMARKS
BEND AIRPORT    LGT SNOW    16  12  84  N6      30.07F
MADRAS AIRPORT  CLOUDY      18  14  84  CALM    30.19F
PRINEVILLE AP   CLOUDY      16  14  92  CALM    30.09F
REDMOND AIRPORT CLOUDY      16  11  80  NW6     30.10F
6HR MIN TEMP:   8; 6HR MAX TEMP:   16;

#ASHWOOD SCHOOL N/A         16  13  88  CALM    30.10F
#BEND 1SW       N/A         15  13  92  CALM    N/A
#BEND-AWBREY    N/A         16  14  92  CALM    30.31F
#BEND-KIM LN    N/A         16  14  92  CALM    30.02F
#CULVER         N/A         15  12  88  N1      30.27F
#CULVER 8W      N/A         18  10  70  CALM    30.10F
#LAKE BILLY CHINN/A         17  N/A N/A NW9     30.27F
#MADRAS 4S      N/A         16  -4  40  CALM    30.22F
#POWELL BUTTE 3EN/A         15  12  88  W3      N/A
#POWELL BUTTE   N/A         15   9  77  NW3     30.01F
#PRINEVILLE 3N  N/A         16  14  92  SE2     30.30F

$$


ORZ509-081310-
EAST SLOPES OF OREGON CASCADES

CITY            SKY/WX      TMP DP  RH  WIND    PRES   REMARKS
SISTERS AWOS    N/A         16  12  84  CALM    30.05F
#BLUE BOX PASS  N/A         12  N/A N/A CALM    N/A
#CAMP SHERMAN   N/A         16  11  80  CALM    30.35F
#LA PINE 4NW    N/A         15  11  84  CALM    30.35F
#LAVA BUTTE DOT N/A         13  10  87  CALM    N/A
#SISTERS AIRPOR N/A         15  15  100 N1      30.17S
#SISTERS ODOT   N/A         16  N/A N/A CALM    N/A
#SISTERS 3N     N/A         17   8  67  CALM    30.11F
#SUNRIVER       N/A         16  13  88  CALM    30.32F
#SUTTLE LK DOT  N/A          9   9  100 NE21G35 N/A    WCI -11
#TUMALO 3W      N/A         14  12  92  W1      30.19F
#WANOGA BUTTE D N/A         11   8  87  NE3     N/A

$$

ORZ044-081310-
LOWER COLUMBIA BASIN...OREGON

CITY            SKY/WX      TMP DP  RH  WIND    PRES   REMARKS
HERMISTON       PTCLDY      14  11  88  E5      30.36F
6HR MIN TEMP:   12; 6HR MAX TEMP:   15;

#BOARDMAN SCHOOLN/A         15  12  88  CALM    30.40F
#BOARDMAN 8SW   N/A         15  11  84  NE5     30.40F
#ECHO 8SW       N/A         12   8  84  CALM    30.37F
#I-84 EX 198 DOTN/A         11  10  96  N6      N/A
#UMATILLA       N/A         16  12  84  CALM    30.35F
$$

ORZ507-081310-
NORTHERN FOOTHILLS OF THE BLUES

CITY            SKY/WX      TMP DP  RH  WIND    PRES   REMARKS
PENDLETON AIRPT FRZFOG       7   5  91  E5      30.28F VSB 1/2
6HR MIN TEMP:   5; 6HR MAX TEMP:   10;

#ADAMS 3WNW     N/A         11   9  91  CALM    30.42F
#ATHENA         N/A          9   6  87  CALM    30.44F
#HELIX SCHOOL   N/A         13  11  91  N3      30.40F
#HELIX 3N       N/A         14  12  92  N1      30.21F
#HOLDMAN 5SE    N/A         12  10  91  CALM    30.27F
#HOLDMAN 6E     N/A         13  11  91  N7      30.19F
#M-F GROVE ELEM N/A         16  12  84  CALM    30.31F
#M-FREEWATER 5SEN/A         12   9  87  CALM    30.29F
#PENDLETON DNTN N/A          8   0  69  CALM    30.33F
#PDT AQUATIC CTRN/A          8   2  76  CALM    30.28F
#PDT SUNRIDGE   N/A          4   1  87  CALM    30.33F
#PENDLETON 7NW  N/A          8   4  83  CALM    32.04S
#PILOT ROCK 1S  N/A          7  -2  66  CALM    30.26F
#PILOT ROCK     N/A          9   4  80  SW3     30.26F
#TUTUILLA       N/A          5   2  87  CALM    30.40F
#UMAPINE 2E     N/A         16  14  92  CALM    30.34F
#WESTON SCHOOL  N/A          8   2  76  CALM    30.16F

$$

ORZ508-081310-
SOUTHERN FOOTHILLS OF THE BLUES

CITY            SKY/WX      TMP DP  RH  WIND    PRES   REMARKS
LEXINGTON       CLOUDY      12   9  87  SE3     30.29F
#AJAX           N/A         17   7  64  N12     27.95F WCI  4
#CONDON SCHOOL  N/A         14  12  92  N6      30.10F
#CONDON 5W      N/A         12   8  84  NE3     30.08F
#HEPPNER EOC    N/A         10   6  83  E5      30.32F
#HEPPNER 4NE    N/A         12   9  87  E6      30.39F
#LEXINGTON 2SE  N/A         11   6  80  S5      30.25F
#MIKKALO        N/A         18  13  80  E14     30.36F WCI  4
#OLEX 4N        N/A         19  16  88  E9      30.29F
#RUGGS 5NE      N/A         10   4  76  CALM    30.30F
#RUGGS 2SW      N/A         10   8  91  CALM    30.41F

$$

ORZ502-503-081310-
BLUE MOUNTAINS

CITY            SKY/WX      TMP DP  RH  WIND    PRES   REMARKS
MEACHAM         PTCLDY      17  10  73  CALM    30.14F
6HR MIN TEMP:   14; 6HR MAX TEMP:   17;

#BATTLE MTN DOT N/A         11   5  76  S8      N/A
#GREENHORN 9SW  N/A         19  13  77  CALM    26.34F
#HEPPNER 15SE   N/A         11   8  87  E1      30.06R
#LADD CYN SMT   N/A         16  12  84  SE18    N/A    WCI -
#LADD CREEK ODOTN/A         19  13  77  SW7     N/A
#LONG CREEK HS  N/A         12  11  96  SW6     30.08F
#N POWDER DOT   N/A         15  12  88  SE8     N/A
#PIKES PEAK     N/A         19   8  62  S5      27.99S
#TOLLGATE       N/A         11   9  91  CALM    29.93F
#TROY SCHOOL    N/A         12   9  87  CALM    30.37F
#UKIAH          N/A         -7  -10 86  CALM    30.52F
#WESTON 4E      N/A         19  14  80  E15G25  30.33F WCI  5
$$

ORZ505-081310-
JOHN DAY BASIN

CITY            SKY/WX      TMP DP  RH  WIND    PRES   REMARKS
JOHN DAY        CLOUDY      21  11  65  E9      30.11F
#ANTELOPE 9ESE  N/A         16  13  88  CALM    N/A
#DAYVILLE SCHOOLN/A         14   9  80  CALM    30.13F
#MITCHELL 8NW   N/A         14  11  88  E1      30.22F
#MONUMENT HS    N/A         12   7  80  CALM    30.30F
#MT. VERNON 5SE N/A         18  10  70  E1      30.05F
#SPRAY SCHOOL   N/A         14  N/A N/A CALM    N/A
$$

ORZ506-081310-
OCHOCO AND JOHN DAY HIGHLANDS

CITY            SKY/WX      TMP DP  RH  WIND    PRES   REMARKS
#BUCK CREEK DOT N/A         19  17  92  E20     N/A    WCI  3
#HORSE RIDGE DO N/A         19  12  74  E10     N/A
#KEYES SMT DOT  N/A         13  10  87  S5      N/A
#PAULINA SCHOOL N/A         14  11  88  CALM    N/A
#PINE MTN OBS   N/A         12  10  91  SE13    N/A    WCI -3
#PRAIRIE CITY   N/A         19   7  59  NE6     30.29F
#SENECA         N/A         12  N/A N/A CALM    N/A
#SENECA 9NW     N/A         14  11  88  CALM    30.44F
$$

ORZ049-081310-
GRANDE RONDE VALLEY

CITY            SKY/WX      TMP DP  RH  WIND    PRES   REMARKS
LA GRANDE       CLOUDY      21   9  59  S8      30.23F
#COVE           N/A         21  15  77  S5      30.25F
#COVE SCHOOL    N/A         22  14  71  S1      30.23F
#COVE 6NW       N/A         21  16  81  CALM    30.47F
#ELGIN 3N       N/A         -1  -12 58  CALM    30.23F
#IMBLER SCHOOL  N/A          8   5  87  N7      30.22F
#ISLAND CITY 4N N/A         32  20  61  NE8     30.06F
#LADD CYN DOT   N/A         20  14  77  NE5     N/A
#UNION 1S       N/A         21  14  74  E6      30.46F
$$

ORZ050-081310-
WALLOWA COUNTY

CITY            SKY/WX      TMP DP  RH  WIND    PRES   REMARKS
JOSEPH AIRPORT  PTCLDY      -4  -8  82  S3      30.19F
#IMNAHA SCHOOL  N/A         12   9  87  CALM    30.32F
#IMNAHA 10S     N/A          9   6  87  CALM    30.23F
#JOSEPH 3N      N/A         -7  -16 64  CALM    30.19F
#JOSEPH 3W      N/A          5  -3  69  CALM    29.95F
#LOSTINE        N/A          1  -2  87  CALM    30.33F
#LOSTINE 3SE    N/A          1  -2  87  S3      30.22F
#MT HOWARD 8000 N/A          8  -17 30  S5      29.81F
#PROMISE 1S     N/A          4   1  87  CALM    30.63S
#WALLOWA SCHOOL N/A          0  -3  87  CALM    30.25F



$$



USA.gov is the U.S. government's official web portal to all federal, state and local government web resources and services.